Погода в Ильинке

Россия / Астраханская область     46°14′11″N   47°53′58″E
темп.,
°C
ветер,
м/с
пор.,
м/с
влажн.,
%
обл.,
%
осадки,
мм/ч
давл.,
гПа
погр.,
м
29 ноября, пн
пн2901:00+6юв489328 0.0 1018149
04:00+6юв468927 0.0 1018103
07:00+5юв3680100 0.0 101995
10:00+7юв3870100 0.0 1019237
13:00+10ююв575191 0.0 1019493
16:00+10юв575286 0.0 1018331
19:00+6юв5107070 0.0 1018243
22:00+6юв5127376 0.0 1016252
30 ноября, вт
вт3001:00+6юв51473100 0.0 1013277
04:00+8ююв717664 0.0 1010382
07:00+8ююв71881100 0.0 1007396
10:00+9ю51489100 0.0 1007473
13:00+12юз357498 0.0 1007327
16:00+12всв1173100 0.0 100627
19:00+10ююв3380100 0.0 100543
22:00+9ююв22900 0.0 100223
1 декабря, ср
ср101:00+7вюв35939 0.0 99788
04:00+6вюв499996 0.0 994177
07:00+7сз4109565 0.0 996345
10:00+9зсз3138896 0.1 998503
13:00+9зсз142059100 0.0 10001035
16:00+6зсз91663100 0.0 10031051
19:00+5зсз61162100 0.0 1007947
22:00+4з596185 0.0 1009480
2 декабря, чт
чт201:00+3юз49697 0.0 1010251
04:00+3юз411706 0.0 1010256
07:00+4юз61264100 0.0 1011476
10:00+4зюз91483100 0.0 1015789
13:00+4з7128977 0.4 1016763
16:00+6сз586097 0.5 10181211
19:00+4з35705 0.0 1020134
22:00+3зюз33755 0.0 102242
3 декабря, пт
пт301:00+2ююз33815 0.0 102248
04:00+1юз33790 0.0 102342
07:00+1ю33774 0.0 102447
10:00+3ю36745 0.0 1024165
13:00+8ю465175 0.0 1024620
16:00+8ююв576827 0.0 1024502
19:00+6юв41092100 0.0 1024265
22:00+6юв5139241 0.0 1023375